Location: Songkhla
(7.2000°N, 100.6000°E)
Time: 20:31:47
(UTC+07:00)

Cosmos 2228 Rocket - Pass Details

Date: 16 April 2026
Orbit: 611 x 647 km, 82.5° (Epoch: 20 May)

Event Time Altitude Azimuth Distance (km) Brightness Sun altitude
Rises 19:22:13 0° 5° (N) 2,884 6.6 -14.5°
Reaches altitude 10° 19:24:30 10° 10° (N) 1,975 5.7 -15.0°
Maximum altitude 19:28:44 50° 85° (E) 786 3.2 -16.1°
Enters shadow 19:32:13 15° 158° (SSE) 1,685 5.0 -16.9°
